Big Rapids, MI

11:59 PM EDT on June 17, 2019 (GMT -0400)
Roben-Hood

Weather History for KRQB - May, 2019

Change the Weather History Date:

Wednesday, May 22, 2019

  Actual Average Record
Temperature  
Mean Temperature 60 °F -  
Max Temperature 71 °F 71 °F 87 °F (1980)
Min Temperature 48 °F 43 °F 26 °F (2003)
Degree Days  
Heating Degree Days 6    
Growing Degree Days 10 (Base 50)    
Moisture  
Dew Point 48 °F    
Average Humidity 70    
Maximum Humidity 87    
Minimum Humidity 46    
Precipitation  
Precipitation 0.14 in - - ()
Sea Level Pressure  
Sea Level Pressure 29.96 in    
Wind  
Wind Speed 11 mph (SE)    
Max Wind Speed 18 mph    
Max Gust Speed 26 mph    
Visibility 10 miles    
Events Rain    
Averages and records for this station are not official NWS values.
T = Trace of Precipitation, MM = Missing Value Source: NWS Daily Summary

Daily Weather History Graph

Daily Weather History Graph

Search for Another Location

Airport or City:

Astronomy

May. 22, 2019 Rise Set
Actual Time 6:10 AM EDT 9:07 PM EDT
Civil Twilight 5:36 AM EDT 9:41 PM EDT
Nautical Twilight 4:52 AM EDT 10:25 PM EDT
Astronomical Twilight 4:01 AM EDT 11:16 PM EDT
Moon 12:03 AM EDT (5/22) 9:16 AM EDT (5/22)
Length of Visible Light 16h 05m
Length of Day
14h 57m
Waning Gibbous, 85% of the Moon is Illuminated
May 22
Waning Gibbous
May 26
Last Quarter
Jun 3
New
Jun 10
First Quarter
Jun 17
Full

Hourly Weather History & Observations

Time (EDT) Temp. Dew Point Humidity Pressure Visibility Wind Dir Wind Speed Gust Speed Precip Events Conditions
12:15 AM 54.0 °F 33.6 °F 46% 30.09 in 10.0 mi East 9.2 mph 16.1 mph N/A   Clear
12:35 AM 53.6 °F 34.3 °F 48% 30.10 in 10.0 mi ESE 6.9 mph - N/A   Scattered Clouds
12:36 AM 53.6 °F 34.5 °F 48% 30.10 in 10.0 mi ESE 6.9 mph - N/A   Scattered Clouds
12:55 AM 53.6 °F 34.5 °F 48% 30.08 in 10.0 mi ESE 9.2 mph 16.1 mph N/A   Mostly Cloudy
12:56 AM 53.6 °F 34.5 °F 48% 30.08 in 10.0 mi ESE 9.2 mph 16.1 mph N/A   Mostly Cloudy
1:15 AM 53.2 °F 34.9 °F 50% 30.08 in 10.0 mi East 11.5 mph 18.4 mph N/A   Mostly Cloudy
1:35 AM 52.9 °F 35.1 °F 51% 30.06 in 10.0 mi ESE 10.4 mph 17.3 mph N/A   Scattered Clouds
1:55 AM 52.9 °F 33.6 °F 48% 30.06 in 10.0 mi SE 12.7 mph - N/A   Scattered Clouds
1:56 AM 52.9 °F 33.6 °F 48% 30.06 in 10.0 mi SE 11.5 mph - N/A   Scattered Clouds
2:15 AM 52.7 °F 33.1 °F 47% 30.04 in 10.0 mi ESE 11.5 mph 18.4 mph N/A   Scattered Clouds
2:35 AM 52.9 °F 32.5 °F 46% 30.04 in 10.0 mi East 11.5 mph 16.1 mph N/A   Mostly Cloudy
2:55 AM 52.7 °F 33.3 °F 48% 30.04 in 10.0 mi ESE 10.4 mph - N/A   Scattered Clouds
2:56 AM 52.7 °F 33.4 °F 48% 30.03 in 10.0 mi ESE 11.5 mph - N/A   Scattered Clouds
3:15 AM 52.7 °F 34.7 °F 50% 30.05 in 10.0 mi SE 12.7 mph 16.1 mph N/A   Scattered Clouds
3:35 AM 52.7 °F 35.4 °F 52% 30.05 in 10.0 mi SE 12.7 mph 17.3 mph N/A   Mostly Cloudy
3:55 AM 51.3 °F 38.5 °F 62% 30.07 in 3.0 mi SE 9.2 mph - 0.02 in Rain Light Rain
4:15 AM 50.0 °F 40.5 °F 70% 30.06 in 10.0 mi ESE 8.1 mph - N/A Rain Light Rain
4:16 AM 50.0 °F 40.6 °F 70% 30.06 in 10.0 mi ESE 8.1 mph - N/A Rain Light Rain
4:35 AM 49.1 °F 41.5 °F 75% 30.03 in 5.0 mi ESE 9.2 mph - 0.04 in   Unknown
4:36 AM 49.1 °F 41.5 °F 75% 30.03 in 5.0 mi ESE 10.4 mph - 0.04 in   Unknown
4:55 AM 48.4 °F 42.6 °F 80% 30.00 in 10.0 mi ESE 11.5 mph - 0.05 in Rain Light Rain
5:15 AM 49.1 °F 43.2 °F 80% 30.01 in 10.0 mi ESE 13.8 mph 18.4 mph N/A   Overcast
5:16 AM 49.3 °F 43.2 °F 79% 30.01 in 10.0 mi ESE 13.8 mph 18.4 mph N/A   Overcast
5:35 AM 49.3 °F 43.3 °F 80% 30.00 in 10.0 mi East 10.4 mph 18.4 mph N/A   Overcast
5:36 AM 49.3 °F 43.3 °F 80% 29.99 in 10.0 mi East 10.4 mph 18.4 mph N/A   Overcast
5:55 AM 49.3 °F 43.3 °F 80% 30.00 in 10.0 mi ESE 9.2 mph 18.4 mph N/A Rain Light Rain
6:15 AM 49.6 °F 43.9 °F 81% 30.05 in 10.0 mi SSW 6.9 mph - N/A Rain Light Rain
6:35 AM 49.5 °F 44.6 °F 83% 30.01 in 10.0 mi East 6.9 mph - N/A   Overcast
6:36 AM 49.5 °F 44.6 °F 83% 30.01 in 10.0 mi ESE 6.9 mph - N/A   Overcast
6:55 AM 49.8 °F 44.2 °F 81% 30.00 in 7.0 mi East 8.1 mph - 0.01 in Rain Light Rain
7:15 AM 50.0 °F 44.6 °F 82% 30.03 in 10.0 mi ESE 9.2 mph - N/A Rain Light Rain
7:35 AM 50.4 °F 44.4 °F 80% 30.02 in 10.0 mi ESE 9.2 mph - N/A Rain Light Rain
7:55 AM 50.4 °F 44.2 °F 80% 30.05 in 10.0 mi SE 8.1 mph - 0.01 in Rain Light Rain
7:56 AM 50.4 °F 44.2 °F 80% 30.05 in 10.0 mi ESE 8.1 mph - 0.01 in Rain Light Rain
8:15 AM 49.3 °F 44.8 °F 84% 30.00 in 1.5 mi ESE 12.7 mph 16.1 mph 0.02 in Rain Light Rain
8:16 AM 49.3 °F 44.8 °F 84% 30.00 in 1.5 mi ESE 13.8 mph - 0.02 in Rain Light Rain
8:35 AM 49.1 °F 45.5 °F 87% 29.94 in 5.0 mi East 16.1 mph 21.9 mph 0.04 in   Unknown
8:55 AM 50.7 °F 45.5 °F 82% 29.94 in 10.0 mi ESE 15.0 mph 23.0 mph 0.04 in   Mostly Cloudy
9:15 AM 51.1 °F 45.5 °F 81% 29.99 in 10.0 mi SE 15.0 mph 26.5 mph N/A   Mostly Cloudy
9:16 AM 51.1 °F 45.5 °F 81% 29.99 in 10.0 mi SE 12.7 mph 20.7 mph N/A   Mostly Cloudy
9:35 AM 51.1 °F 45.3 °F 81% 29.98 in 10.0 mi SSE 17.3 mph 26.5 mph N/A   Overcast
9:55 AM 50.9 °F 45.5 °F 82% 30.00 in 10.0 mi SSE 12.7 mph - N/A   Overcast
10:15 AM 50.9 °F 45.5 °F 82% 29.99 in 10.0 mi SE 11.5 mph - N/A   Overcast
10:35 AM 51.3 °F 45.7 °F 81% 29.97 in 10.0 mi SE 11.5 mph - N/A   Overcast
10:36 AM 51.3 °F 45.7 °F 81% 29.97 in 10.0 mi SE 12.7 mph - N/A   Overcast
10:55 AM 52.3 °F 46.0 °F 79% 29.97 in 10.0 mi SE 12.7 mph 17.3 mph N/A   Overcast
10:56 AM 52.5 °F 46.2 °F 79% 29.97 in 10.0 mi SE 10.4 mph 17.3 mph N/A   Overcast
11:15 AM 53.8 °F 46.6 °F 77% 29.97 in 10.0 mi SE 13.8 mph 19.6 mph N/A   Overcast
11:35 AM 54.7 °F 47.3 °F 76% 29.97 in 10.0 mi SE 15.0 mph - N/A   Overcast
11:55 AM 54.7 °F 47.7 °F 77% 29.96 in 10.0 mi SE 13.8 mph 20.7 mph N/A   Overcast
11:56 AM 54.9 °F 47.8 °F 77% 29.96 in 10.0 mi SE 16.1 mph 21.9 mph N/A   Overcast
12:15 PM 55.4 °F 48.6 °F 78% 29.96 in 10.0 mi SE 15.0 mph 21.9 mph N/A   Overcast
12:35 PM 55.8 °F 49.1 °F 78% 29.96 in 10.0 mi SE 13.8 mph - N/A   Overcast
12:55 PM 56.3 °F 49.5 °F 78% 29.96 in 10.0 mi SE 16.1 mph 23.0 mph N/A   Overcast
1:15 PM 57.2 °F 50.4 °F 78% 29.96 in 10.0 mi SSE 15.0 mph 19.6 mph N/A   Overcast
1:16 PM 57.0 °F 50.2 °F 78% 29.96 in 10.0 mi SSE 15.0 mph 19.6 mph N/A   Overcast
1:35 PM 57.2 °F 50.5 °F 78% 29.96 in 10.0 mi SSE 11.5 mph 19.6 mph N/A   Overcast
1:36 PM 57.2 °F 50.5 °F 78% 29.96 in 10.0 mi SSE 13.8 mph 19.6 mph N/A   Overcast
1:55 PM 57.4 °F 50.9 °F 79% 29.96 in 10.0 mi SE 9.2 mph - N/A   Overcast
2:15 PM 57.9 °F 51.4 °F 79% 29.96 in 10.0 mi SE 11.5 mph - N/A   Overcast
2:16 PM 57.9 °F 51.4 °F 79% 29.96 in 10.0 mi SE 11.5 mph - N/A   Overcast
2:35 PM 59.0 °F 52.3 °F 79% 29.95 in 10.0 mi SE 10.4 mph 17.3 mph N/A   Overcast
2:36 PM 59.0 °F 52.3 °F 79% 29.95 in 10.0 mi SE 11.5 mph 17.3 mph N/A   Overcast
2:55 PM 60.8 °F 52.9 °F 75% 29.93 in 10.0 mi SE 13.8 mph 17.3 mph N/A   Overcast
3:15 PM 61.5 °F 53.6 °F 75% 29.93 in 10.0 mi SE 10.4 mph 19.6 mph N/A   Overcast
3:16 PM 61.7 °F 53.8 °F 75% 29.93 in 10.0 mi SE 10.4 mph 19.6 mph N/A   Overcast
3:35 PM 63.5 °F 54.3 °F 72% 29.93 in 10.0 mi SSE 10.4 mph 16.1 mph N/A   Scattered Clouds
3:36 PM 63.5 °F 54.3 °F 72% 29.93 in 10.0 mi SSE 10.4 mph 16.1 mph N/A   Scattered Clouds
3:55 PM 63.9 °F 54.5 °F 72% 29.92 in 10.0 mi SSE 9.2 mph 18.4 mph N/A   Scattered Clouds
3:56 PM 63.9 °F 54.5 °F 72% 29.92 in 10.0 mi SSE 10.4 mph 18.4 mph N/A   Scattered Clouds
4:15 PM 66.0 °F 55.2 °F 68% 29.92 in 10.0 mi SSE 12.7 mph 24.2 mph N/A   Scattered Clouds
4:35 PM 67.3 °F 55.2 °F 65% 29.92 in 10.0 mi SSE 9.2 mph 21.9 mph N/A   Scattered Clouds
4:55 PM 68.4 °F 55.8 °F 64% 29.91 in 10.0 mi SSE 12.7 mph - N/A   Clear
4:56 PM 68.4 °F 55.8 °F 64% 29.91 in 10.0 mi SSE 12.7 mph 18.4 mph N/A   Clear
5:15 PM 68.9 °F 55.6 °F 62% 29.91 in 10.0 mi SSE 13.8 mph 17.3 mph N/A   Clear
5:16 PM 68.9 °F 55.6 °F 62% 29.91 in 10.0 mi SSE 12.7 mph 17.3 mph N/A   Clear
5:35 PM 69.8 °F 56.3 °F 62% 29.90 in 10.0 mi SSE 10.4 mph 17.3 mph N/A   Clear
5:55 PM 70.2 °F 56.7 °F 62% 29.90 in 10.0 mi SSE 13.8 mph 17.3 mph N/A   Clear
5:56 PM 70.2 °F 56.7 °F 62% 29.90 in 10.0 mi SSE 13.8 mph 17.3 mph N/A   Clear
6:15 PM 70.7 °F 56.5 °F 61% 29.89 in 10.0 mi SSE 15.0 mph 19.6 mph N/A   Clear
6:16 PM 70.5 °F 56.3 °F 61% 29.89 in 10.0 mi South 13.8 mph 20.7 mph N/A   Clear
6:35 PM 70.3 °F 56.8 °F 62% 29.87 in 10.0 mi SSE 18.4 mph 23.0 mph N/A   Clear
6:55 PM 70.7 °F 57.4 °F 63% 29.87 in 10.0 mi SSE 12.7 mph 20.7 mph N/A   Clear
7:15 PM 71.1 °F 57.2 °F 61% 29.87 in 10.0 mi SE 16.1 mph 20.7 mph N/A   Clear
7:16 PM 71.1 °F 57.2 °F 61% 29.87 in 10.0 mi SSE 16.1 mph 20.7 mph N/A   Clear
7:35 PM 70.7 °F 57.2 °F 62% 29.87 in 10.0 mi SSE 11.5 mph 17.3 mph N/A   Clear
7:36 PM 70.7 °F 57.2 °F 62% 29.87 in 10.0 mi SE 12.7 mph 19.6 mph N/A   Clear
7:55 PM 70.7 °F 56.7 °F 61% 29.88 in 10.0 mi SSE 15.0 mph - N/A   Clear
8:15 PM 70.2 °F 56.8 °F 63% 29.87 in 10.0 mi South 12.7 mph 18.4 mph N/A   Clear
8:35 PM 69.8 °F 56.7 °F 63% 29.87 in 10.0 mi South 15.0 mph 18.4 mph N/A   Clear
8:36 PM 69.8 °F 56.7 °F 63% 29.87 in 10.0 mi South 15.0 mph 18.4 mph N/A   Clear
8:55 PM 69.8 °F 56.7 °F 63% 29.88 in 10.0 mi South 11.5 mph 20.7 mph N/A   Clear
8:56 PM 69.8 °F 56.7 °F 63% 29.88 in 10.0 mi South 11.5 mph 20.7 mph N/A   Clear
9:15 PM 69.3 °F 56.8 °F 65% 29.87 in 10.0 mi South 11.5 mph 18.4 mph N/A   Clear
9:35 PM 68.9 °F 57.0 °F 66% 29.87 in 10.0 mi South 9.2 mph 18.4 mph N/A   Clear
9:55 PM 68.2 °F 57.2 °F 68% 29.88 in 10.0 mi South 6.9 mph - N/A   Clear
9:56 PM 68.2 °F 57.2 °F 68% 29.88 in 10.0 mi South 6.9 mph - N/A   Clear
10:15 PM 68.0 °F 57.4 °F 69% 29.89 in 10.0 mi South 5.8 mph - N/A   Clear
10:16 PM 68.0 °F 57.4 °F 69% 29.89 in 10.0 mi South 6.9 mph - N/A   Clear
10:35 PM 67.6 °F 57.6 °F 70% 29.89 in 10.0 mi South 6.9 mph - N/A   Clear
10:55 PM 67.5 °F 57.9 °F 71% 29.92 in 10.0 mi SSW 5.8 mph - N/A   Mostly Cloudy
11:15 PM 67.1 °F 58.6 °F 74% 29.93 in 10.0 mi South 8.1 mph - N/A Rain Rain
11:16 PM 67.1 °F 58.6 °F 74% 29.93 in 10.0 mi South 8.1 mph - N/A Rain Rain
11:35 PM 66.6 °F 59.5 °F 78% 29.92 in 10.0 mi South 10.4 mph - 0.01 in Rain Light Rain
11:55 PM 65.3 °F 60.3 °F 84% 29.89 in 10.0 mi SSE 10.4 mph - 0.01 in Rain Light Rain